Temperature
12 13 14 15 12 10 11 12 12 13 14 16 16 16 15 15 16 17 16 16 17 17 17 17 16 16 16 16 16 17 17 17 17 17 17 17 17 17 17 17 16 16 16 16 16 16 16 16 16
12 13 14 13 10 10 11 11 12 13 15 16 16 16 15 15 16 16 16 16 16 16 16 16 16 16 16 16 16 16 17 17 17 16 17 17 16 16 17 16 16 16 16 16 16 16 16 16 15
12 13 13 9 9 10 12 12 12 14 15 16 15 15 15 15 15 15 16 16 16 16 16 16 16 16 16 16 16 16 16 16 16 16 16 16 16 16 16 16 16 16 16 16 16 15 15 15 15
12 13 12 9 10 10 12 12 12 13 15 15 15 14 14 14 15 15 15 16 16 16 16 16 16 16 16 16 16 16 16 16 16 16 16 16 16 16 16 16 16 16 16 16 16 15 15 15 15
12 12 9 9 10 11 11 12 13 13 13 14 14 13 14 14 15 15 15 15 16 16 16 16 16 16 16 16 16 16 16 16 16 16 16 16 16 16 16 16 16 16 16 16 15 15 15 15 15
12 9 8 9 10 11 11 12 13 13 13 13 13 13 13 14 14 15 15 15 15 15 15 15 16 16 16 16 16 16 16 16 16 16 16 16 16 16 16 16 16 16 16 15 15 15 15 15 15
10 8 8 9 10 11 12 12 12 12 12 13 13 12 13 14 14 14 14 15 15 15 15 15 15 15 15 15 16 16 16 16 16 16 16 16 16 16 16 16 16 16 16 15 15 15 15 15 15
11 7 8 9 10 11 11 12 13 13 12 13 13 12 12 13 14 14 14 14 14 14 15 15 15 15 15 15 15 15 15 15 16 16 16 16 15 15 15 15 15 15 15 15 15 15 15 15 15
10 7 8 9 10 11 11 11 12 12 12 12 13 13 13 13 13 14 14 14 14 14 14 14 15 15 15 15 15 15 15 15 15 15 15 15 15 15 15 15 15 15 15 15 15 15 15 15 15
9 7 9 9 10 10 10 11 11 12 11 11 12 12 13 13 13 13 14 14 14 14 14 14 14 14 14 14 15 15 15 15 15 15 15 15 15 15 15 15 15 15 15 15 15 15 15 15 15
8 8 9 9 10 10 10 10 11 11 10 11 12 12 12 12 13 13 13 13 13 13 13 13 14 14 14 14 14 14 14 15 15 15 15 15 15 15 15 15 15 15 15 15 15 15 15 14 14
8 8 9 9 10 10 10 10 10 10 11 12 12 12 12 12 12 12 12 13 13 13 13 13 13 13 14 14 14 14 14 14 14 14 15 15 15 15 15 15 15 14 14 14 14 14 14 14 14
8 8 9 9 10 10 10 9 9 10 11 12 12 12 12 12 12 12 12 12 12 12 13 13 13 13 13 13 13 13 14 14 14 14 14 14 14 14 14 14 14 14 14 14 14 14 14 14 14
8 8 9 9 10 10 9 9 9 10 11 11 11 11 12 12 12 12 12 12 12 12 12 12 13 13 13 13 13 13 13 13 13 13 14 14 14 14 14 14 14 14 14 14 14 14 14 14 14
8 8 8 9 9 9 10 9 9 11 11 11 11 11 11 11 11 11 11 12 12 12 12 12 12 12 12 12 12 12 13 13 13 13 13 13 13 13 13 14 14 14 13 13 13 13 13 13 13
8 7 8 8 9 9 9 9 9 10 10 10 10 11 11 11 11 11 11 11 11 11 12 12 12 12 12 12 12 12 12 12 12 12 13 13 13 13 13 13 13 13 13 13 13 13 13 13 13
6 6 7 8 8 8 8 8 9 10 10 9 10 10 10 10 10 10 10 11 11 11 11 11 11 12 12 12 12 12 12 12 12 12 12 12 12 12 13 13 13 13 13 13 13 13 13 13 13
6 6 7 7 8 8 7 7 8 9 9 9 9 9 10 10 10 10 10 10 10 10 11 11 11 11 11 11 11 11 11 12 12 12 12 12 12 12 12 12 12 12 12 12 12 12 12 12 12
7 6 6 7 8 8 7 7 8 9 8 8 8 9 9 9 10 10 10 10 10 10 10 10 10 10 11 11 11 11 11 11 11 12 12 11 11 11 12 12 12 12 12 12 12 12 12 12 12
7 6 6 7 7 8 7 7 7 8 8 8 8 9 9 9 9 9 9 9 9 9 10 10 10 10 10 10 10 10 11 11 11 11 11 11 11 11 11 11 11 11 11 11 11 11 11 11 11
7 6 6 6 7 7 6 7 7 7 8 8 8 9 9 9 9 9 9 9 9 9 9 9 10 10 10 10 10 10 10 10 10 11 11 11 11 11 11 11 11 11 11 11 11 11 11 11 11
6 7 7 7 6 5 6 6 6 7 6 7 7 8 8 9 9 8 8 9 9 9 9 9 9 9 9 9 9 9 9 10 10 10 10 10 10 10 10 10 10 10 10 10 11 10 10 10 10
6 7 6 6 6 5 5 5 6 6 7 7 7 8 8 8 8 8 8 8 8 8 8 9 9 9 9 9 9 9 9 9 9 9 9 9 10 10 10 10 10 10 10 10 10 10 10 10 10
7 6 6 5 5 6 6 5 5 5 6 7 7 7 8 8 8 8 8 8 8 8 8 8 8 8 8 8 8 8 8 8 9 9 9 9 9 9 9 10 10 10 10 10 10 10 10 9 9
6 5 5 5 5 5 5 5 5 6 6 6 6 7 8 8 8 8 8 8 8 8 8 8 8 8 8 8 8 8 8 8 8 8 8 9 9 9 9 9 9 9 9 9 9 9 9 9 9
6 6 5 6 5 4 5 5 6 6 6 7 7 7 8 8 8 8 8 8 8 8 8 7 7 7 7 8 8 8 8 8 8 8 8 8 8 9 9 9 9 9 9 9 9 9 9 9 8
6 5 5 4 4 4 5 4 5 6 6 6 6 7 7 8 7 7 7 7 7 7 7 7 7 7 7 7 7 7 7 7 8 8 8 8 8 8 8 8 8 8 8 8 8 8 8 8 8
6 5 4 4 5 6 5 5 5 7 6 6 5 6 7 8 7 7 7 7 7 7 7 7 7 7 7 7 7 7 7 7 7 7 7 7 7 7 7 8 8 8 8 8 8 8 8 7 7
5 5 4 4 4 5 5 6 6 6 6 6 5 7 7 8 8 7 7 7 7 6 6 6 6 6 7 7 7 7 7 7 7 7 7 7 7 7 7 7 7 7 7 7 7 7 7 7 7
5 5 4 5 4 3 3 6 7 5 5 5 6 7 8 8 8 7 7 7 7 6 6 6 6 6 6 6 6 6 6 6 6 6 6 6 6 7 7 6 6 6 6 6 6 7 7 6 6
Wind_Speed
4 3 3 4 5 2 5 5 4 3 3 2 1 3 5 4 4 3 1 1 1 3 3 6 7 9 11 12 12 12 12 12 12 13 13 14 14 14 13 13 12 12 12 12 12 12 12 12 12
1 2 4 5 5 4 6 5 5 5 3 1 2 3 3 1 1 1 1 2 1 3 4 5 6 8 10 10 11 11 12 12 12 12 12 12 13 13 13 12 12 11 11 11 11 12 12 11 11
1 3 4 4 4 7 5 4 5 3 1 1 2 3 3 1 1 0 2 1 2 3 3 4 6 8 8 9 9 10 10 10 11 12 12 12 12 12 12 12 12 11 11 11 11 11 11 11 10
3 4 4 3 5 5 4 1 2 2 2 2 3 3 1 2 2 1 1 2 4 3 3 4 6 7 7 7 7 8 9 9 10 11 11 11 11 11 11 11 11 11 11 11 11 11 11 10 9
3 4 3 2 4 3 3 3 1 1 1 2 3 2 1 5 3 3 3 4 4 3 3 4 6 6 6 6 7 7 7 8 8 9 10 11 11 11 11 11 11 11 11 11 11 11 10 9 9
3 4 4 4 3 2 2 2 1 1 1 1 2 3 0 3 3 3 3 4 3 3 4 4 5 5 5 5 6 6 6 6 7 8 9 10 10 10 11 11 11 11 11 11 10 10 10 9 8
4 4 4 5 3 1 2 1 0 0 0 0 2 3 1 2 2 3 4 4 4 4 4 4 4 3 3 3 4 5 5 5 6 7 7 8 9 9 10 11 11 11 11 10 10 10 10 9 8
4 4 3 3 4 2 2 2 1 1 1 1 2 5 3 2 1 4 5 5 5 5 4 4 4 3 3 2 2 3 4 4 5 5 6 7 8 9 9 10 11 11 11 10 10 10 10 9 8
4 3 2 4 4 2 2 2 3 1 2 2 1 2 2 2 3 5 5 4 4 4 4 3 3 3 2 1 1 1 2 3 3 4 5 5 6 7 8 9 10 10 11 10 10 9 10 9 8
4 3 3 2 2 1 1 1 2 3 3 2 2 2 2 3 4 4 3 2 2 3 3 3 2 2 2 1 1 1 1 1 3 3 4 4 5 6 7 8 9 10 10 10 10 9 9 8 7
3 3 1 1 1 0 1 2 2 2 1 2 3 2 2 3 3 2 1 0 1 1 2 3 2 2 2 1 1 1 1 0 1 2 3 4 4 4 5 5 6 7 7 7 7 8 7 7 6
3 1 0 1 1 1 1 1 2 0 3 3 2 2 2 2 1 1 1 1 1 1 2 3 2 2 2 1 1 0 1 0 1 2 3 3 2 3 3 4 4 5 5 5 5 5 6 6 7
3 1 1 2 2 1 1 1 0 2 4 1 1 0 1 1 1 1 1 1 1 2 3 3 2 1 2 1 1 0 1 1 2 2 3 4 3 3 3 3 4 4 5 5 4 4 4 4 5
1 1 2 3 2 2 1 2 0 4 2 1 0 1 2 1 1 1 1 1 2 2 3 3 2 2 1 0 1 1 1 2 2 2 3 5 4 3 3 4 4 4 5 5 5 5 4 4 4
1 3 4 3 2 2 2 5 3 4 1 1 2 2 2 1 1 1 2 1 1 2 2 3 2 2 1 1 1 1 2 2 2 2 4 4 4 4 4 4 4 4 6 5 4 4 3 3 3
3 4 3 4 2 2 2 5 5 2 1 3 3 3 2 2 1 2 2 2 1 1 2 3 3 3 2 2 2 2 2 2 2 2 2 4 5 5 4 3 3 4 5 4 4 3 3 3 3
5 3 2 4 2 1 1 6 7 3 2 4 4 4 3 3 3 2 2 2 2 2 2 3 3 2 3 2 2 2 1 1 1 1 1 3 4 5 4 4 4 4 4 4 4 3 3 3 3
0 0 1 3 4 1 3 8 10 6 4 6 6 5 5 5 5 3 2 2 2 2 2 2 3 3 3 2 2 1 1 1 1 1 2 3 4 5 5 3 4 4 3 3 4 3 2 2 3
3 2 2 4 3 2 6 10 12 8 5 6 7 6 6 6 4 3 2 2 2 2 2 2 3 3 2 1 1 1 1 1 1 1 2 3 4 4 4 3 3 4 4 4 4 3 3 2 2
2 1 2 4 3 2 6 11 10 8 6 7 7 8 7 5 3 3 3 2 2 2 3 3 3 3 2 1 1 1 1 2 2 2 2 2 3 3 4 4 4 4 4 4 4 3 2 2 2
2 1 2 4 5 4 5 9 6 4 3 4 5 6 5 6 5 5 4 4 3 2 3 3 3 3 3 2 1 1 1 1 1 1 2 2 2 3 3 3 3 4 4 4 4 4 4 3 2
2 2 2 2 3 4 3 6 8 5 6 5 5 5 4 4 4 4 4 4 3 3 3 3 3 3 3 2 1 2 2 2 3 2 2 2 2 2 2 3 3 4 3 4 4 3 3 4 3
2 2 1 1 1 3 1 3 9 4 5 7 6 5 5 4 4 5 5 4 4 3 2 3 3 3 3 2 2 3 3 3 2 1 2 2 1 1 1 1 2 3 3 3 3 3 3 3 3
1 2 2 2 1 3 3 4 8 5 6 6 5 5 4 4 4 4 4 3 3 2 2 3 3 4 3 3 3 3 4 3 2 2 2 2 1 1 1 1 2 2 3 3 3 3 4 3 3
4 4 4 5 3 5 2 4 9 8 7 6 8 7 5 4 4 4 4 4 3 3 3 3 3 4 4 3 3 3 4 4 4 3 3 2 2 2 2 1 1 2 2 3 3 3 3 3 4
1 3 3 2 4 6 3 7 8 6 6 7 7 6 4 4 4 4 4 4 4 4 4 4 4 4 4 3 3 3 3 3 3 3 2 2 2 2 2 1 1 1 1 2 2 2 2 2 3
1 1 2 2 2 5 7 7 9 4 5 4 4 4 5 5 5 5 5 4 4 4 4 4 4 4 4 3 3 2 2 2 2 2 1 1 1 1 2 2 2 2 2 2 3 2 2 2 2
2 4 3 2 2 5 7 6 5 6 6 5 5 5 6 5 5 5 5 5 4 4 4 3 4 4 4 3 3 2 2 2 1 1 1 1 1 1 1 1 2 2 1 2 2 2 2 2 2
3 3 3 2 2 3 6 8 6 7 6 6 7 7 7 6 6 6 5 5 4 3 3 3 3 3 3 3 2 2 2 1 1 1 1 1 1 1 1 1 2 2 2 2 2 2 2 3 2
4 6 6 3 4 4 4 9 6 7 7 6 7 7 7 7 6 6 5 4 4 4 4 4 4 3 3 2 1 1 1 1 1 1 1 1 1 1 1 1 2 2 2 2 3 2 2 3 2
Wind_Direction
357 37 68 63 70 79 224 231 219 216 219 220 165 141 147 154 162 177 275 24 98 143 148 152 156 158 157 155 155 154 152 150 149 149 148 147 146 143 142 142 141 139 136 133 130 126 123 119 117
24 64 61 71 120 188 244 232 217 214 207 131 79 101 99 112 11 73 347 327 107 128 127 139 148 151 154 154 157 160 159 158 157 157 155 153 151 150 150 148 147 144 140 138 135 130 125 123 121
68 58 93 101 155 191 214 224 216 248 272 90 76 65 114 125 349 292 300 286 96 103 113 136 139 146 146 149 155 161 164 163 164 162 161 160 158 158 157 156 153 149 146 144 142 137 132 130 127
84 59 68 115 201 212 212 235 235 289 358 54 101 64 42 7 312 308 356 74 94 81 92 128 135 138 143 145 153 158 164 169 170 168 167 167 167 166 163 161 159 155 152 150 149 146 142 138 135
64 90 104 180 217 236 252 283 289 92 3 29 94 105 18 342 348 44 57 74 84 67 68 115 124 131 132 140 146 157 164 166 172 175 178 176 175 173 169 165 164 162 160 158 159 157 153 148 145
65 83 130 193 209 258 276 299 329 55 26 46 97 110 37 342 17 38 55 62 70 68 53 82 113 120 131 135 149 154 161 169 175 179 181 183 181 181 177 173 171 171 171 169 169 168 164 162 159
109 107 155 166 168 235 282 325 146 151 55 226 142 125 138 340 4 42 55 56 53 53 55 50 75 102 118 135 146 158 161 166 177 182 181 185 186 185 185 183 180 180 180 180 179 178 174 172 169
116 105 119 164 164 211 310 350 16 155 199 336 121 145 180 223 40 58 54 50 45 42 46 39 46 62 74 100 145 156 158 159 170 179 182 183 186 188 190 189 189 188 188 188 187 186 182 179 176
91 83 158 184 171 216 333 21 352 346 89 29 36 164 187 126 76 66 54 36 32 26 22 28 31 34 46 73 126 162 176 172 166 174 182 185 186 188 190 191 193 194 195 194 194 191 186 181 179
85 132 190 207 191 204 323 13 337 33 41 37 41 36 60 86 85 82 75 42 17 353 351 9 13 16 23 32 43 80 179 176 161 160 167 175 182 187 190 193 195 198 198 199 200 195 188 179 175
90 145 190 322 301 239 356 347 353 95 40 204 181 166 86 85 78 89 81 48 309 311 335 340 342 356 17 10 28 41 53 134 155 162 165 168 173 180 182 183 190 196 198 199 202 195 184 176 175
87 50 74 319 339 38 346 339 5 65 223 225 200 164 125 110 111 151 190 311 324 335 322 327 334 341 346 8 2 43 45 153 178 191 178 164 167 180 182 183 187 188 192 190 186 182 183 182 185
80 58 343 343 30 65 71 4 294 282 264 285 6 51 182 204 242 258 232 274 320 319 321 321 326 327 328 351 330 329 236 234 224 214 199 184 184 199 196 195 193 194 192 187 184 186 186 188 192
101 69 336 344 5 11 54 314 15 273 287 360 206 247 253 241 245 280 309 300 302 298 307 314 331 326 329 300 267 272 255 244 223 219 214 198 192 195 202 203 198 198 197 195 192 193 193 196 198
59 39 6 357 4 339 7 327 247 255 342 310 291 273 272 275 281 268 272 267 276 303 315 320 331 352 336 295 282 285 272 265 247 238 223 211 202 194 195 205 205 204 199 191 187 189 189 197 202
44 47 9 331 356 341 69 282 275 272 193 268 280 283 274 283 289 292 292 293 309 328 330 322 333 348 331 306 281 283 281 264 257 257 241 225 215 206 193 199 206 202 193 184 188 189 195 204 208
41 47 337 319 334 3 157 261 276 290 237 261 268 270 267 273 281 286 300 308 316 315 316 318 320 323 314 305 297 287 288 267 263 256 259 247 225 210 200 202 200 191 185 189 192 190 192 202 211
93 58 311 291 310 327 268 267 282 285 248 257 263 264 260 258 262 265 277 296 311 312 315 317 321 320 315 314 318 311 304 284 277 247 248 254 237 215 202 203 196 186 184 191 193 186 190 199 204
146 141 284 281 300 298 268 275 279 279 262 259 260 256 253 254 258 254 259 283 311 322 335 327 324 319 332 336 314 295 286 286 283 270 253 244 237 220 200 204 196 189 191 197 190 182 182 202 180
102 60 311 307 325 293 287 281 274 262 247 243 244 247 249 255 267 269 268 272 284 302 317 320 317 311 308 289 268 252 263 265 260 274 281 261 246 224 205 198 198 194 191 188 187 176 180 189 171
29 191 269 295 327 339 327 305 288 284 262 260 247 242 242 234 244 256 263 263 263 280 296 300 302 301 299 298 318 343 338 323 310 294 285 284 260 230 205 202 198 195 190 191 191 184 184 190 196
296 260 250 300 347 316 16 302 291 296 297 275 258 247 243 246 246 254 258 269 265 260 275 287 290 295 293 286 249 239 242 249 253 261 265 278 273 245 211 192 183 184 187 186 192 188 186 177 195
250 305 264 271 249 304 270 239 285 307 284 280 270 256 249 240 237 247 254 259 264 260 271 283 288 289 286 273 237 234 247 252 260 265 275 277 272 271 234 180 176 181 181 179 182 182 183 187 194
284 14 21 48 63 291 238 206 280 254 243 275 276 266 257 248 246 257 268 268 266 267 273 283 286 281 281 272 253 233 234 240 247 256 262 266 252 243 234 174 171 184 180 180 184 188 182 190 190
45 55 16 355 347 262 244 225 253 253 245 252 266 265 258 250 247 259 271 276 275 271 272 281 280 282 280 274 264 247 237 230 229 234 239 241 241 244 232 202 190 182 183 180 177 179 180 184 190
2 119 146 237 270 292 290 245 255 257 269 267 263 258 253 252 251 252 253 257 259 260 267 272 271 276 276 270 264 257 245 236 236 232 227 231 239 237 213 192 181 165 164 168 161 170 182 173 183
135 163 165 160 267 280 274 278 296 270 284 283 279 270 259 255 255 255 256 254 254 255 256 257 262 271 271 266 264 258 245 235 239 234 220 237 247 225 185 176 175 174 171 171 162 168 173 165 177
153 150 109 144 274 286 290 274 260 277 273 276 276 271 268 266 264 263 258 254 256 254 260 262 259 261 266 264 258 245 233 231 227 198 201 218 234 212 172 162 164 168 178 175 164 156 161 161 172
154 156 155 168 199 233 291 278 229 237 252 258 264 264 262 262 260 258 257 252 252 257 261 262 266 264 265 258 251 241 230 218 197 193 210 219 210 185 172 177 170 176 181 174 158 158 156 161 170
192 195 171 188 235 213 245 274 262 243 259 259 267 270 265 257 257 254 252 252 249 252 258 260 260 255 255 247 230 226 207 165 164 189 217 203 199 192 184 181 179 187 188 179 170 172 166 171 178
Height
1487 1489 1492 1495 1501 1511 1510 1505 1501 1499 1498 1496 1496 1497 1498 1501 1504 1509 1505 1503 1504 1506 1508 1510 1512 1515 1517 1518 1520 1522 1524 1525 1527 1528 1530 1531 1532 1533 1535 1536 1537 1538 1539 1539 1540 1541 1542 1543 1543
1487 1489 1493 1495 1504 1513 1509 1501 1499 1496 1494 1494 1495 1496 1497 1499 1500 1502 1502 1503 1504 1506 1508 1510 1512 1514 1516 1518 1520 1522 1523 1525 1527 1528 1529 1531 1532 1533 1535 1536 1537 1538 1539 1540 1541 1542 1542 1543 1544
1487 1489 1492 1496 1504 1506 1502 1497 1495 1493 1493 1494 1495 1496 1497 1499 1500 1501 1502 1503 1505 1506 1508 1510 1512 1514 1516 1517 1519 1521 1523 1525 1526 1528 1529 1531 1532 1533 1535 1536 1537 1538 1539 1540 1541 1542 1543 1544 1544
1487 1490 1492 1499 1500 1499 1496 1493 1493 1493 1493 1493 1494 1497 1498 1499 1500 1501 1502 1503 1505 1506 1508 1510 1512 1513 1515 1517 1518 1520 1522 1524 1526 1527 1529 1530 1532 1533 1534 1536 1537 1538 1539 1540 1541 1542 1543 1544 1545
1486 1488 1495 1500 1498 1496 1494 1493 1492 1492 1493 1494 1495 1496 1498 1499 1500 1501 1502 1503 1505 1506 1508 1509 1511 1513 1514 1516 1517 1519 1521 1523 1525 1526 1528 1530 1531 1533 1534 1535 1537 1538 1539 1540 1541 1542 1543 1544 1545
1486 1488 1498 1500 1497 1494 1493 1492 1492 1492 1493 1494 1494 1496 1498 1499 1500 1501 1502 1503 1505 1506 1507 1509 1510 1512 1513 1515 1516 1518 1520 1521 1523 1525 1527 1528 1530 1532 1533 1535 1536 1537 1539 1540 1541 1542 1543 1543 1544
1486 1491 1496 1497 1497 1495 1492 1492 1492 1492 1492 1494 1494 1496 1497 1499 1500 1501 1502 1503 1505 1506 1507 1508 1510 1511 1512 1514 1515 1516 1518 1520 1522 1524 1525 1527 1529 1530 1532 1533 1535 1536 1538 1539 1540 1541 1542 1543 1544
1485 1491 1495 1497 1496 1494 1492 1491 1491 1492 1492 1494 1494 1495 1497 1499 1500 1501 1502 1503 1504 1505 1506 1507 1509 1510 1511 1512 1514 1515 1517 1518 1520 1522 1523 1525 1527 1528 1530 1532 1533 1535 1536 1537 1539 1540 1541 1542 1542
1486 1495 1497 1495 1494 1493 1491 1491 1492 1492 1492 1493 1493 1495 1496 1498 1499 1500 1502 1502 1503 1504 1505 1506 1507 1508 1509 1510 1512 1513 1515 1516 1518 1519 1521 1523 1524 1526 1528 1530 1531 1533 1534 1536 1537 1538 1539 1540 1541
1487 1496 1494 1493 1492 1492 1491 1491 1492 1492 1492 1493 1493 1494 1496 1497 1498 1499 1500 1501 1502 1503 1504 1505 1505 1506 1507 1508 1509 1511 1512 1514 1515 1517 1519 1520 1522 1524 1526 1527 1529 1531 1532 1533 1535 1536 1537 1538 1539
1488 1493 1492 1491 1490 1491 1491 1492 1492 1492 1493 1493 1493 1494 1495 1496 1497 1498 1499 1499 1500 1501 1502 1503 1503 1504 1505 1506 1507 1508 1509 1511 1512 1514 1516 1517 1519 1521 1523 1524 1526 1528 1529 1531 1532 1534 1535 1536 1537
1489 1491 1491 1491 1490 1491 1491 1491 1492 1492 1492 1492 1493 1493 1494 1495 1496 1497 1497 1498 1499 1499 1500 1501 1501 1502 1502 1503 1504 1505 1507 1508 1509 1511 1513 1514 1516 1518 1519 1521 1523 1525 1526 1528 1529 1531 1532 1533 1535
1490 1492 1491 1491 1491 1491 1491 1492 1492 1491 1491 1492 1493 1493 1494 1494 1495 1496 1496 1496 1497 1497 1498 1498 1499 1499 1500 1501 1501 1503 1504 1505 1506 1508 1509 1511 1512 1514 1516 1518 1519 1521 1523 1525 1526 1528 1529 1530 1532
1492 1492 1492 1491 1491 1491 1492 1492 1492 1490 1491 1491 1492 1492 1493 1493 1493 1494 1494 1494 1495 1495 1496 1496 1496 1497 1497 1498 1498 1499 1500 1502 1503 1504 1505 1507 1509 1510 1512 1514 1516 1517 1519 1521 1523 1524 1525 1527 1529
1492 1493 1493 1492 1492 1492 1492 1493 1491 1490 1490 1490 1491 1491 1491 1492 1492 1492 1492 1492 1493 1493 1493 1494 1494 1494 1494 1495 1495 1496 1497 1498 1499 1500 1502 1503 1505 1506 1508 1510 1511 1513 1515 1517 1519 1520 1522 1523 1525
1494 1497 1499 1495 1493 1493 1497 1497 1490 1489 1489 1489 1489 1489 1489 1490 1490 1490 1490 1490 1490 1490 1491 1491 1491 1491 1491 1492 1492 1493 1494 1494 1495 1496 1498 1499 1501 1502 1504 1505 1507 1509 1511 1513 1515 1516 1518 1519 1521
1501 1504 1502 1498 1494 1494 1496 1495 1488 1488 1488 1487 1487 1487 1487 1487 1487 1488 1488 1488 1488 1488 1488 1488 1488 1488 1488 1489 1489 1490 1490 1491 1492 1493 1494 1495 1497 1498 1500 1501 1503 1505 1507 1508 1510 1512 1514 1515 1517
1505 1505 1504 1502 1497 1496 1497 1493 1487 1486 1486 1485 1485 1485 1484 1484 1485 1485 1485 1485 1485 1485 1485 1485 1485 1485 1485 1485 1486 1486 1487 1487 1488 1489 1490 1491 1492 1494 1496 1497 1499 1501 1502 1504 1506 1507 1509 1511 1512
1502 1504 1505 1502 1497 1497 1495 1492 1486 1483 1483 1482 1482 1481 1481 1481 1482 1482 1482 1482 1482 1482 1482 1482 1482 1482 1482 1482 1482 1482 1483 1484 1484 1485 1486 1487 1488 1490 1491 1492 1494 1496 1497 1499 1501 1503 1505 1506 1508
1502 1504 1505 1501 1497 1497 1495 1489 1483 1480 1479 1478 1478 1478 1478 1478 1479 1479 1479 1479 1479 1479 1479 1479 1479 1479 1479 1479 1479 1479 1480 1480 1481 1481 1482 1483 1484 1485 1487 1488 1489 1491 1493 1495 1496 1498 1500 1501 1503
1503 1505 1504 1503 1500 1497 1497 1489 1481 1477 1475 1474 1474 1474 1474 1475 1475 1476 1476 1476 1476 1476 1476 1476 1476 1476 1476 1476 1476 1476 1476 1476 1477 1477 1478 1479 1480 1481 1482 1484 1485 1486 1488 1490 1491 1493 1495 1497 1499
1505 1502 1503 1503 1505 1506 1502 1501 1483 1478 1475 1472 1471 1471 1471 1472 1473 1473 1473 1473 1473 1473 1473 1473 1473 1473 1473 1473 1473 1473 1473 1472 1473 1473 1474 1475 1476 1477 1478 1480 1481 1482 1484 1485 1487 1489 1491 1493 1494
1504 1502 1503 1503 1504 1506 1503 1504 1488 1480 1475 1470 1469 1468 1468 1469 1470 1470 1470 1470 1470 1470 1470 1470 1470 1469 1470 1469 1469 1469 1469 1469 1469 1470 1470 1471 1472 1474 1474 1476 1477 1478 1480 1481 1483 1485 1487 1489 1490
1502 1503 1503 1506 1507 1507 1501 1504 1491 1481 1473 1469 1466 1466 1466 1466 1467 1467 1467 1468 1468 1467 1467 1467 1466 1466 1466 1465 1465 1465 1465 1465 1466 1466 1466 1467 1468 1470 1471 1472 1473 1475 1476 1477 1479 1481 1482 1484 1486
1504 1508 1515 1511 1514 1507 1501 1501 1488 1471 1469 1467 1465 1464 1463 1464 1464 1464 1464 1464 1464 1464 1464 1464 1463 1462 1462 1462 1462 1462 1462 1462 1462 1462 1463 1464 1465 1466 1467 1469 1470 1471 1472 1473 1475 1477 1478 1480 1481
1506 1508 1516 1514 1514 1511 1502 1498 1478 1467 1465 1463 1462 1462 1461 1462 1462 1462 1462 1462 1462 1461 1461 1461 1460 1459 1459 1458 1458 1458 1458 1459 1459 1459 1460 1460 1461 1462 1463 1465 1466 1467 1469 1470 1471 1473 1474 1475 1477
1506 1509 1510 1515 1515 1513 1501 1491 1475 1464 1463 1461 1460 1460 1459 1459 1460 1459 1459 1459 1459 1458 1458 1458 1457 1456 1456 1456 1455 1455 1455 1455 1456 1456 1457 1457 1458 1459 1460 1461 1462 1464 1465 1466 1467 1468 1470 1471 1472
1505 1508 1513 1514 1511 1506 1499 1492 1480 1465 1462 1461 1460 1458 1458 1458 1457 1457 1457 1457 1456 1456 1456 1455 1455 1454 1453 1453 1453 1453 1453 1453 1453 1454 1454 1455 1456 1456 1457 1458 1459 1460 1461 1463 1464 1465 1466 1467 1468
1506 1508 1510 1513 1514 1511 1505 1484 1467 1463 1460 1459 1458 1457 1456 1456 1455 1455 1455 1454 1454 1453 1453 1452 1452 1451 1451 1450 1450 1450 1451 1451 1451 1451 1452 1453 1453 1454 1454 1455 1456 1457 1458 1459 1460 1461 1462 1463 1464
1502 1503 1507 1510 1510 1513 1512 1485 1460 1459 1457 1457 1456 1454 1454 1454 1453 1453 1452 1451 1451 1450 1450 1450 1449 1448 1448 1448 1448 1448 1448 1449 1449 1449 1450 1450 1450 1451 1452 1452 1453 1454 1455 1456 1457 1458 1459 1460 1461